This is the latest recevied weather packets stored in our database for station/object APPOWX. If no packets are shown the sender has not sent any weather packets the latest 1 day(s).
| Time | Temp. | Humidity | Pressure | Rain* | Wind** | Luminosity | Snow |
|---|---|---|---|---|---|---|---|
| 1778013915 | 25.56° C | 36% | 1014.7 hPa | 0 mm | - | - | - |
| 1778013856 | 26.11° C | 36% | 1014.6 hPa | 0 mm | - | - | - |
| 1778013735 | 26.11° C | 38% | 1014.4 hPa | 0 mm | - | - | - |
| 1778013193 | 26.11° C | 38% | 1014.7 hPa | 0 mm | - | - | - |
| 1778013013 | 26.11° C | 38% | 1014.5 hPa | 0 mm | - | - | - |
| 1778012713 | 25.56° C | 39% | 1014.6 hPa | 0 mm | - | - | - |
| 1778012351 | 25.56° C | 36% | 1015 hPa | 0 mm | - | - | - |
| 1778012291 | 25.56° C | 35% | 1014.8 hPa | 0 mm | - | - | - |
| 1778011810 | 25.56° C | 36% | 1015 hPa | 0 mm | - | - | - |
| 1778011750 | 25.56° C | 38% | 1015 hPa | 0 mm | - | - | - |
| 1778011450 | 25° C | 37% | 1014.9 hPa | 0 mm | - | - | - |
| 1778010969 | 25° C | 37% | 1015 hPa | 0 mm | - | - | - |
| 1778010848 | 25° C | 35% | 1015.1 hPa | 0 mm | - | - | - |
| 1778010788 | 25° C | 35% | 1015.1 hPa | 0 mm | - | - | - |
| 1778010728 | 25° C | 36% | 1015.2 hPa | 0 mm | - | - | - |
| 1778010548 | 25° C | 36% | 1015.1 hPa | 0 mm | - | - | - |
| 1778010367 | 25° C | 39% | 1015.2 hPa | 0 mm | - | - | - |
| 1778009886 | 25° C | 36% | 1015.2 hPa | 0 mm | - | - | - |
| 1778009525 | 25.56° C | 36% | 1015.2 hPa | 0 mm | - | - | - |
| 1778009285 | 25.56° C | 38% | 1015.3 hPa | 0 mm | - | - | - |
| 1778009045 | 25.56° C | 37% | 1015.4 hPa | 0 mm | - | - | - |
| 1778008683 | 25° C | 37% | 1015.4 hPa | 0 mm | - | - | - |
| 1778008322 | 25° C | 35% | 1015.5 hPa | 0 mm | - | - | - |
| 1778007962 | 26.11° C | 33% | 1015.6 hPa | 0 mm | - | - | - |
| 1778007901 | 26.11° C | 34% | 1015.4 hPa | 0 mm | - | - | - |
* Rain latest hour (hover to see other rain measurements)
** Current wind speed in m/s (hover to see current wind gust speed)